Weather Roundup
Issued by NWS Springfield, MO

Home | Current Version | Previous Version | Text Only | Print | Product List | Glossary On
Versions: 1 2 3 4 5 6 7 8 9 10 11 12 13 14 15 16 17 18 19 20 21 22 23 24 25 26 27 28 29 30 31 32 33 34 35 36 37 38 39 40 41 42 43 44 45 46 47 48 49 50
000
NZUS99 KSGF 281359
HRRSGF

HOURLY WEATHER
NATIONAL WEATHER SERVICE SPRINGFIELD MO
800 AM CST WED JAN 28 2015

......SGF CWA......

CITY           SKY/WX    TMP DP  RH WIND       PRES   REMARKS
SPRINGFIELD    CLEAR     39  33  79 S16G30    30.07F WCI  30
JOPLIN         CLEAR     50  33  52 S10       30.03S
WEST PLAINS    CLEAR     31  27  85 SE7       30.21R WCI  24
ROLLA          CLEAR     33  27  78 S18G28    30.11S WCI  22
OSAGE BEACH    CLEAR     37  28  70 S15G21    30.10R WCI  28
BRANSON        PTCLDY    36  32  87 E12       30.14R WCI  27

......SURROUNDING SGF CWA......

CITY           SKY/WX    TMP DP  RH WIND       PRES   REMARKS
CHANUTE        CLEAR     47  37  68 S15       29.97F
PARSONS        CLEAR     48  37  65 S7        29.99F
COFFEYVILLE    CLEAR     48  37  65 S8        30.00S
EMPORIA        CLEAR     41  35  79 S15       29.90F
SILOAM SPRINGS CLEAR     46  30  53 S8        30.09S
HARRISON AR    CLEAR     38  34  85 SE13      30.14R WCI  30
NEAR YELLVILLE CLEAR     36  30  80 E5        30.19R WCI  32

......KANSAS AND MISSOURI......

CITY           SKY/WX    TMP DP  RH WIND       PRES   REMARKS
KANSAS CTY INT FAIR      40  31  70 S12       29.92F WCI  33
DOWNTOWN KC    CLEAR     41  31  67 CALM      29.95F
COLUMBIA       CLEAR     32  29  88 SE18      30.08S WCI  20
SEDALIA        CLEAR     40  33  76 S15       30.04S WCI  32
ST JOSEPH      CLEAR     36  30  79 SE8       29.92F WCI  30
ST LOUIS       MOCLDY    31  27  85 SE13      30.23F FOG     WCI  21
SPIRIT OF STL  PTCLDY    30  26  85 SE5       30.22S WCI  25
KIRKSVILLE     CLEAR     30  28  92 SE16      30.07S FOG     WCI  19
WICHITA        MOCLDY    42  35  76 S10       29.90S
TOPEKA         CLEAR     33  29  85 E3        29.90F
OLATHE         CLEAR     39  31  72 S8        29.94F WCI  33

......TENNESSEE......

CITY           SKY/WX    TMP DP  RH WIND       PRES   REMARKS
MEMPHIS        PTCLDY    36  28  73 SE7       30.28F WCI  30
NASHVILLE      MOSUNNY   32  19  58 E9        30.34R WCI  24

......ARKANSAS.......

CITY           SKY/WX    TMP DP  RH WIND       PRES   REMARKS
FAYETTEVILLE   CLEAR     48  35  60 S7        30.10S
FT SMITH       CLEAR     42  36  79 E9        30.15R
LITTLE ROCK    PTCLDY    37  33  85 E3        30.26R

......OKLAHOMA.......

CITY           SKY/WX    TMP DP  RH WIND       PRES   REMARKS
TULSA          PTCLDY    50  37  61 S8        30.02S
PONCA CITY     CLEAR     52  37  56 S9        29.96R
MCALESTER      PTCLDY    51  38  60 S5        30.09S
OKLAHOMA CITY  PTCLDY    45  36  70 SE7       30.02R

......IOWA............

CITY           SKY/WX    TMP DP  RH WIND       PRES   REMARKS
DES MOINES     CLOUDY    31  26  82 SE13      30.00F HAZE    WCI  21
QUAD CITIES    PTCLDY    25  21  85 SE10      30.19F FOG     WCI  15

......ILLINOIS........

CITY           SKY/WX    TMP DP  RH WIND       PRES   REMARKS
QUINCY         CLEAR     28  25  88 SE13      30.14F FOG     WCI  17
CHICAGO        MOCLDY    22  16  78 S7        30.28S WCI  13




USA.gov is the U.S. government's official web portal to all federal, state and local government web resources and services.